User: anonymous   Login
Location: Hertford
(51.8000°N, 0.0667°W)
Time: 11:17:35
(UTC+00:00)
Language:

Cosmos 1634 Rocket - Orbit

View from above orbital plane
View from above orbital plane
View from above satellite
View from above satellite

Ground track
Ground track

The orbit data is extracted from the following two-line orbital elements,

1 15598U 85022B   21170.91385976  .00000038  00000-0  23602-4 0  9992
2 15598  82.9378  99.1083 0021718 339.2654  87.1473 13.76593540821608
Epoch (UTC): 19 June 2021 21:55:57
Eccentricity: 0.0021718
inclination: 82.9378°
perigee height: 960 km
apogee height: 992 km
right ascension of ascending node: 99.1083°
argument of perigee: 339.2654°
revolutions per day: 13.76593540
mean anomaly at epoch: 87.1473°
orbit number at epoch: 82160

The dashed part of the orbit path shows where the satellite is in the earth's shadow,  

DLR